Location: Bremen
(53.0793°N, 8.8017°E)
Time: 23:47:39
(UTC+01:00)

ACS3 Solar Sail - Visible Passes

Search period start: 14 December 2025 00:00
Search period end: 24 December 2025 00:00
Orbit: 887 x 1000 km, 97.3° (Epoch: 14 December)

Date Brightness Start Highest point End Pass type
(mag) Time Alt. Az. Time Alt. Az. Time Alt. Az.
14 Dec 3.9 04:31:23 10° N 04:32:12 14° N 04:32:12 14° N visible
15 Dec 4.5 03:03:57 10° NNE 03:03:57 10° NNE 03:03:57 10° NNE visible
15 Dec 3.9 04:47:07 10° N 04:47:55 14° N 04:47:55 14° N visible
16 Dec 4.4 03:19:25 10° NNE 03:19:36 11° NNE 03:19:36 11° NNE visible
16 Dec 3.9 05:02:48 10° N 05:03:34 13° N 05:03:34 13° N visible
17 Dec 4.3 03:34:52 10° NNE 03:35:10 12° NNE 03:35:10 12° NNE visible
17 Dec 3.9 05:18:28 10° N 05:19:09 13° N 05:19:09 13° N visible
18 Dec 4.2 03:50:16 10° N 03:50:42 12° N 03:50:42 12° N visible
18 Dec 3.9 05:34:08 10° N 05:34:40 12° NNW 05:34:40 12° NNW visible
19 Dec 4.1 04:05:39 10° N 04:06:09 12° N 04:06:09 12° N visible
19 Dec 3.9 05:49:48 10° NNW 05:50:06 11° NNW 05:50:06 11° NNW visible
20 Dec 4.1 04:20:59 10° N 04:21:31 13° N 04:21:31 13° N visible
21 Dec 4.0 04:36:17 10° N 04:36:50 13° N 04:36:50 13° N visible
22 Dec 4.0 04:51:32 10° N 04:52:05 12° N 04:52:05 12° N visible
23 Dec 4.4 03:23:17 10° NNE 03:23:19 10° NNE 03:23:19 10° NNE visible
23 Dec 4.0 05:06:45 10° N 05:07:15 12° N 05:07:15 12° N visible
